THY7XE LTFM-LIPZ

Flight info

Callsign THY7XE
Flight time 2h 31m
Altitude 36000
Route VADEN1E/36 VADEN N618 GOL DCT DOLAP DCT VEBAR DCT KOREX DCT LABIN Z122 BASOG
Aircraft B738/M-SDE2E3FGHIRWXY/LB1

Departure

Time 2026-05-06 19:12
Airport İstanbul Airport (LTFM)

Arrival

Time 2026-05-06 21:44
Airport Venice Marco Polo Airport (LIPZ)
Time Latitude Longitude Altitude Speed Heading
2026-05-06 18:37 41.25706 28.74790 330 ft 0 kts 359°
2026-05-06 19:01 41.25697 28.74790 333 ft 3 kts 359°
2026-05-06 19:01 41.25675 28.74790 315 ft 3 kts 359°
2026-05-06 19:01 41.25658 28.74791 345 ft 3 kts 355°
2026-05-06 19:02 41.25638 28.74795 329 ft 3 kts 330°
2026-05-06 19:02 41.25626 28.74810 328 ft 3 kts 273°
2026-05-06 19:02 41.25626 28.74837 331 ft 3 kts 269°
2026-05-06 19:02 41.25626 28.74865 331 ft 3 kts 269°
2026-05-06 19:03 41.25627 28.74893 328 ft 3 kts 269°
2026-05-06 19:03 41.25627 28.74916 328 ft 3 kts 269°
2026-05-06 19:03 41.25627 28.74940 328 ft 3 kts 269°
2026-05-06 19:03 41.25627 28.74963 328 ft 3 kts 268°
2026-05-06 19:04 41.25628 28.74989 328 ft 3 kts 272°
2026-05-06 19:04 41.25625 28.75015 329 ft 3 kts 302°
2026-05-06 19:04 41.25612 28.75032 328 ft 3 kts 347°
2026-05-06 19:04 41.25591 28.75034 329 ft 3 kts
2026-05-06 19:05 41.25571 28.75032 330 ft 3 kts 359°
2026-05-06 19:05 41.25561 28.75033 330 ft 0 kts 359°
2026-05-06 19:07 41.25562 28.75033 330 ft 0 kts 359°
2026-05-06 19:07 41.25578 28.75032 330 ft 6 kts 359°
2026-05-06 19:07 41.25635 28.75062 330 ft 11 kts 52°
2026-05-06 19:07 41.25648 28.75160 333 ft 11 kts 87°
2026-05-06 19:08 41.25649 28.75259 333 ft 11 kts 89°
2026-05-06 19:08 41.25651 28.75354 333 ft 10 kts 81°
2026-05-06 19:08 41.25704 28.75403 333 ft 10 kts
2026-05-06 19:08 41.25774 28.75403 333 ft 11 kts 359°
2026-05-06 19:09 41.25863 28.75401 329 ft 15 kts 359°
2026-05-06 19:09 41.25984 28.75397 329 ft 19 kts 358°
2026-05-06 19:09 41.26131 28.75394 332 ft 23 kts 359°
2026-05-06 19:09 41.26243 28.75432 332 ft 16 kts 71°
2026-05-06 19:10 41.26249 28.75520 333 ft 4 kts 88°
2026-05-06 19:10 41.26249 28.75521 333 ft 0 kts 88°
2026-05-06 19:11 41.26249 28.75524 333 ft 2 kts 88°
2026-05-06 19:11 41.26250 28.75581 333 ft 10 kts 88°
2026-05-06 19:11 41.26275 28.75684 333 ft 13 kts 23°
2026-05-06 19:11 41.26367 28.75664 332 ft 14 kts 358°
2026-05-06 19:12 41.26540 28.75661 329 ft 52 kts 359°
2026-05-06 19:12 41.27141 28.75651 332 ft 119 kts 359°
2026-05-06 19:12 41.28150 28.75631 415 ft 164 kts
2026-05-06 19:12 41.29303 28.75572 1035 ft 172 kts 359°
2026-05-06 19:13 41.30494 28.75512 1862 ft 173 kts 358°
2026-05-06 19:13 41.31699 28.75752 2438 ft 186 kts 24°
2026-05-06 19:13 41.32787 28.76902 2713 ft 210 kts 44°
2026-05-06 19:13 41.33805 28.78320 3182 ft 219 kts 42°
2026-05-06 19:14 41.35036 28.79668 3424 ft 241 kts 33°
2026-05-06 19:14 41.36505 28.80950 3767 ft 260 kts 29°
2026-05-06 19:14 41.38087 28.82119 4540 ft 260 kts 17°
2026-05-06 19:14 41.39862 28.82373 5264 ft 258 kts 350°
2026-05-06 19:15 41.41615 28.82007 6236 ft 249 kts 348°
2026-05-06 19:15 41.43314 28.81699 7103 ft 249 kts 353°
2026-05-06 19:15 41.45065 28.81536 7599 ft 260 kts 355°
2026-05-06 19:15 41.46887 28.81383 8270 ft 264 kts 355°
2026-05-06 19:16 41.48726 28.81210 9017 ft 266 kts 355°
2026-05-06 19:16 41.50582 28.81015 9760 ft 268 kts 354°
2026-05-06 19:16 41.52456 28.80802 10354 ft 276 kts 354°
2026-05-06 19:16 41.54446 28.80563 10523 ft 298 kts 354°
2026-05-06 19:17 41.56580 28.80301 10684 ft 319 kts 354°
2026-05-06 19:17 41.58844 28.79892 10827 ft 338 kts 344°
2026-05-06 19:17 41.60950 28.78407 11175 ft 351 kts 321°
2026-05-06 19:17 41.62565 28.75924 11735 ft 359 kts 302°
2026-05-06 19:18 41.63567 28.72845 12399 ft 364 kts 293°
2026-05-06 19:18 41.64456 28.69659 13017 ft 368 kts 293°
2026-05-06 19:18 41.65364 28.66444 13665 ft 371 kts 294°
2026-05-06 19:18 41.66298 28.63210 14282 ft 374 kts 294°
2026-05-06 19:19 41.67065 28.59856 14874 ft 382 kts 280°
2026-05-06 19:19 41.67118 28.56319 15497 ft 388 kts 272°
2026-05-06 19:19 41.67096 28.52703 16116 ft 390 kts 274°
2026-05-06 19:19 41.67120 28.49057 16706 ft 394 kts 274°
2026-05-06 19:20 41.67163 28.45380 17283 ft 397 kts 275°
2026-05-06 19:20 41.67208 28.41669 17871 ft 401 kts 275°
2026-05-06 19:20 41.67250 28.37926 18447 ft 404 kts 275°
2026-05-06 19:20 41.67290 28.34157 18953 ft 407 kts 275°
2026-05-06 19:21 41.67327 28.30351 19456 ft 409 kts 275°
2026-05-06 19:21 41.67364 28.26534 19979 ft 412 kts 275°
2026-05-06 19:21 41.67399 28.22692 20471 ft 414 kts 275°
2026-05-06 19:21 41.67433 28.18827 20956 ft 417 kts 275°
2026-05-06 19:22 41.67467 28.14929 21432 ft 420 kts 275°
2026-05-06 19:22 41.67500 28.11018 21894 ft 423 kts 275°
2026-05-06 19:22 41.67532 28.07075 22353 ft 425 kts 275°
2026-05-06 19:22 41.67899 28.03187 22758 ft 420 kts 291°
2026-05-06 19:23 41.69098 27.99672 23206 ft 414 kts 305°
2026-05-06 19:23 41.70668 27.96435 23663 ft 415 kts 307°
2026-05-06 19:23 41.72272 27.93202 24014 ft 418 kts 307°
2026-05-06 19:23 41.73883 27.89957 24390 ft 419 kts 307°
2026-05-06 19:24 41.75493 27.86688 24785 ft 421 kts 306°
2026-05-06 19:24 41.77093 27.83410 25167 ft 422 kts 306°
2026-05-06 19:24 41.78696 27.80103 25533 ft 423 kts 306°
2026-05-06 19:24 41.80298 27.76784 25883 ft 425 kts 306°
2026-05-06 19:25 41.81905 27.73443 26240 ft 426 kts 306°
2026-05-06 19:25 41.83512 27.70096 26627 ft 426 kts 306°
2026-05-06 19:25 41.85112 27.66757 27004 ft 426 kts 306°
2026-05-06 19:25 41.86719 27.63403 27305 ft 428 kts 306°
2026-05-06 19:26 41.88331 27.60037 27586 ft 430 kts 306°
2026-05-06 19:26 41.89946 27.56659 27904 ft 431 kts 306°
2026-05-06 19:26 41.91567 27.53266 28231 ft 432 kts 306°
2026-05-06 19:26 41.93165 27.49913 28644 ft 430 kts 306°
2026-05-06 19:27 41.94774 27.46534 29117 ft 427 kts 306°
2026-05-06 19:27 41.96372 27.43178 29575 ft 425 kts 306°
2026-05-06 19:27 41.97960 27.39838 30039 ft 423 kts 306°
2026-05-06 19:27 41.99538 27.36514 30461 ft 421 kts 306°
2026-05-06 19:28 42.01107 27.33208 30813 ft 420 kts 306°
2026-05-06 19:28 42.02676 27.29898 31132 ft 419 kts 306°
2026-05-06 19:28 42.04239 27.26598 31480 ft 417 kts 306°
2026-05-06 19:28 42.05793 27.23312 31844 ft 416 kts 305°
2026-05-06 19:29 42.06841 27.21157 32044 ft 414 kts 308°
2026-05-06 19:29 42.08679 27.18118 32295 ft 413 kts 313°
2026-05-06 19:29 42.10582 27.15292 32562 ft 413 kts 314°
2026-05-06 19:29 42.12559 27.12426 32930 ft 411 kts 314°
2026-05-06 19:30 42.14493 27.09615 33305 ft 409 kts 314°
2026-05-06 19:30 42.16413 27.06792 33631 ft 407 kts 314°
2026-05-06 19:30 42.18318 27.03962 33921 ft 407 kts 314°
2026-05-06 19:30 42.20208 27.01128 34188 ft 406 kts 313°
2026-05-06 19:31 42.22092 26.98291 34414 ft 406 kts 313°
2026-05-06 19:31 42.27762 26.89711 34903 ft 410 kts 313°
2026-05-06 19:32 42.29654 26.86839 35156 ft 409 kts 313°
2026-05-06 19:32 42.31547 26.83965 35306 ft 410 kts 313°
2026-05-06 19:32 42.33455 26.81066 35454 ft 412 kts 313°
2026-05-06 19:32 42.35360 26.78168 35624 ft 413 kts 313°
2026-05-06 19:33 42.37270 26.75259 35845 ft 412 kts 313°
2026-05-06 19:33 42.39170 26.72364 36026 ft 412 kts 313°
2026-05-06 19:33 42.43001 26.66518 36051 ft 416 kts 313°
2026-05-06 19:34 42.46826 26.60666 36050 ft 413 kts 313°
2026-05-06 19:34 42.50619 26.54855 36048 ft 411 kts 313°
2026-05-06 19:35 42.54087 26.48722 36043 ft 411 kts 302°
2026-05-06 19:35 42.56323 26.41575 36058 ft 414 kts 292°
2026-05-06 19:36 42.58155 26.34210 36055 ft 415 kts 291°
2026-05-06 19:36 42.60006 26.26779 36051 ft 417 kts 292°
2026-05-06 19:37 42.61878 26.19317 36036 ft 419 kts 291°
2026-05-06 19:37 42.63762 26.11818 36045 ft 420 kts 291°
2026-05-06 19:38 42.65652 26.04283 36051 ft 422 kts 291°
2026-05-06 19:38 42.67546 25.96708 36043 ft 424 kts 291°
2026-05-06 19:39 42.69437 25.89117 36006 ft 425 kts 291°
2026-05-06 19:39 42.71325 25.81513 36028 ft 424 kts 291°
2026-05-06 19:40 42.73210 25.73896 36014 ft 425 kts 291°
2026-05-06 19:40 42.75090 25.66279 36015 ft 425 kts 291°
2026-05-06 19:41 42.76963 25.58661 36023 ft 424 kts 291°
2026-05-06 19:41 42.78827 25.51054 36020 ft 423 kts 290°
2026-05-06 19:42 42.80685 25.43446 36011 ft 423 kts 290°
2026-05-06 19:42 42.82534 25.35854 36019 ft 422 kts 290°
2026-05-06 19:43 42.84378 25.28255 36009 ft 422 kts 290°
2026-05-06 19:43 42.86216 25.20657 36010 ft 421 kts 290°
2026-05-06 19:44 42.88034 25.13114 36004 ft 422 kts 290°
2026-05-06 19:44 42.89862 25.05506 35996 ft 422 kts 290°
2026-05-06 19:45 42.91687 24.97884 35996 ft 423 kts 290°
2026-05-06 19:45 42.93510 24.90249 35996 ft 423 kts 290°
2026-05-06 19:46 42.95327 24.82607 35999 ft 424 kts 290°
2026-05-06 19:46 42.97143 24.74946 35994 ft 424 kts 289°
2026-05-06 19:47 42.98950 24.67294 35995 ft 423 kts 289°
2026-05-06 19:47 43.00753 24.59637 35981 ft 423 kts 289°
2026-05-06 19:48 43.02551 24.51972 35984 ft 423 kts 289°
2026-05-06 19:48 43.04344 24.44306 35973 ft 423 kts 289°
2026-05-06 19:49 43.06129 24.36642 35978 ft 423 kts 289°
2026-05-06 19:49 43.07908 24.28982 35976 ft 423 kts 289°
2026-05-06 19:50 43.09671 24.21361 35977 ft 423 kts 288°
2026-05-06 19:50 43.11264 24.13603 35978 ft 423 kts 286°
2026-05-06 19:51 43.12766 24.05811 35980 ft 423 kts 286°
2026-05-06 19:51 43.14276 23.98019 35972 ft 424 kts 286°
2026-05-06 19:52 43.15800 23.90224 35970 ft 424 kts 286°
2026-05-06 19:52 43.17328 23.82415 35978 ft 424 kts 286°
2026-05-06 19:53 43.18851 23.74603 35982 ft 425 kts 286°
2026-05-06 19:53 43.20371 23.66777 35985 ft 425 kts 286°
2026-05-06 19:54 43.21883 23.58953 35984 ft 425 kts 285°
2026-05-06 19:54 43.23394 23.51106 35987 ft 425 kts 285°
2026-05-06 19:55 43.24898 23.43264 35986 ft 425 kts 285°
2026-05-06 19:55 43.26399 23.35409 36000 ft 425 kts 285°
2026-05-06 19:56 43.27893 23.27555 35995 ft 426 kts 285°
2026-05-06 19:56 43.29382 23.19693 36004 ft 426 kts 285°
2026-05-06 19:57 43.30859 23.11862 35999 ft 426 kts 285°
2026-05-06 19:57 43.32340 23.03981 36000 ft 426 kts 285°
2026-05-06 19:58 43.33815 22.96098 35997 ft 426 kts 285°
2026-05-06 19:58 43.35284 22.88218 36000 ft 425 kts 284°
2026-05-06 19:59 43.36736 22.80395 36014 ft 425 kts 284°
2026-05-06 19:59 43.38288 22.72602 36011 ft 425 kts 287°
2026-05-06 20:00 43.40085 22.64855 36008 ft 425 kts 288°
2026-05-06 20:00 43.41901 22.57131 36009 ft 424 kts 288°
2026-05-06 20:01 43.43691 22.49401 36001 ft 424 kts 287°
2026-05-06 20:01 43.45459 22.41664 35994 ft 423 kts 287°
2026-05-06 20:02 43.47213 22.33942 35999 ft 422 kts 287°
2026-05-06 20:02 43.48958 22.26229 35992 ft 421 kts 287°
2026-05-06 20:03 43.50693 22.18529 35991 ft 420 kts 287°
2026-05-06 20:03 43.52419 22.10847 35987 ft 419 kts 287°
2026-05-06 20:04 43.54134 22.03185 35993 ft 418 kts 287°
2026-05-06 20:04 43.55845 21.95518 35985 ft 418 kts 287°
2026-05-06 20:05 43.57547 21.87861 35988 ft 417 kts 287°
2026-05-06 20:05 43.59243 21.80203 35994 ft 417 kts 287°
2026-05-06 20:06 43.60934 21.72542 35976 ft 418 kts 287°
2026-05-06 20:06 43.62624 21.64857 35969 ft 418 kts 286°
2026-05-06 20:07 43.64298 21.57219 35971 ft 418 kts 286°
2026-05-06 20:07 43.65977 21.49524 35955 ft 418 kts 286°
2026-05-06 20:08 43.67651 21.41831 35953 ft 418 kts 286°
2026-05-06 20:08 43.69319 21.34137 35944 ft 418 kts 286°
2026-05-06 20:09 43.70979 21.26447 35963 ft 417 kts 285°
2026-05-06 20:09 43.72631 21.18770 35946 ft 416 kts 285°
2026-05-06 20:10 43.74275 21.11100 35944 ft 415 kts 285°
2026-05-06 20:10 43.75634 21.04743 35946 ft 414 kts 285°
2026-05-06 20:11 43.77261 20.97099 35946 ft 414 kts 285°
2026-05-06 20:11 43.78879 20.89475 35955 ft 413 kts 285°
2026-05-06 20:12 43.80489 20.81857 35952 ft 412 kts 285°
2026-05-06 20:12 43.82089 20.74259 35947 ft 410 kts 285°
2026-05-06 20:13 43.83679 20.66682 35960 ft 409 kts 285°
2026-05-06 20:13 43.85264 20.59104 35977 ft 409 kts 285°
2026-05-06 20:14 43.86840 20.51533 35966 ft 408 kts 284°
2026-05-06 20:14 43.88382 20.44104 35965 ft 407 kts 284°
2026-05-06 20:15 43.89943 20.36553 35968 ft 407 kts 284°
2026-05-06 20:15 43.91497 20.29008 35966 ft 407 kts 284°
2026-05-06 20:16 43.93048 20.21454 35978 ft 407 kts 284°
2026-05-06 20:16 43.94595 20.13890 35973 ft 408 kts 284°
2026-05-06 20:17 43.96139 20.06306 35975 ft 408 kts 284°
2026-05-06 20:17 43.97677 19.98727 35973 ft 408 kts 284°
2026-05-06 20:18 43.99201 19.91191 35986 ft 408 kts 284°
2026-05-06 20:18 44.00729 19.83605 35976 ft 407 kts 284°
2026-05-06 20:19 44.02247 19.76039 35981 ft 406 kts 284°
2026-05-06 20:19 44.03749 19.68524 35975 ft 406 kts 284°
2026-05-06 20:20 44.05256 19.60952 35979 ft 406 kts 284°
2026-05-06 20:20 44.06758 19.53381 35984 ft 406 kts 284°
2026-05-06 20:21 44.08248 19.45843 35977 ft 404 kts 284°
2026-05-06 20:21 44.09732 19.38311 35982 ft 402 kts 284°
2026-05-06 20:22 44.11202 19.30804 35998 ft 402 kts 283°
2026-05-06 20:22 44.12672 19.23286 35999 ft 403 kts 283°
2026-05-06 20:23 44.14145 19.15748 35998 ft 404 kts 283°
2026-05-06 20:23 44.15665 19.08211 35984 ft 405 kts 283°
2026-05-06 20:24 44.17198 19.00652 35981 ft 406 kts 283°
2026-05-06 20:24 44.18539 18.93996 35977 ft 406 kts 283°
2026-05-06 20:25 44.20060 18.86406 35988 ft 406 kts 283°
2026-05-06 20:25 44.21565 18.78859 35987 ft 406 kts 283°
2026-05-06 20:26 44.23073 18.71262 35980 ft 406 kts 283°
2026-05-06 20:26 44.24575 18.63667 35983 ft 406 kts 283°
2026-05-06 20:27 44.26072 18.56072 35976 ft 406 kts 283°
2026-05-06 20:27 44.27561 18.48485 35984 ft 405 kts 283°
2026-05-06 20:28 44.29045 18.40894 35966 ft 405 kts 283°
2026-05-06 20:28 44.30517 18.33337 35982 ft 402 kts 283°
2026-05-06 20:29 44.31982 18.25785 35976 ft 403 kts 283°
2026-05-06 20:29 44.33444 18.18214 35980 ft 403 kts 283°
2026-05-06 20:30 44.35628 18.06859 35979 ft 404 kts 282°
2026-05-06 20:31 44.37081 17.99265 35991 ft 405 kts 282°
2026-05-06 20:31 44.38530 17.91658 35974 ft 406 kts 282°
2026-05-06 20:32 44.39979 17.84026 35980 ft 406 kts 282°
2026-05-06 20:32 44.41423 17.76391 35984 ft 406 kts 282°
2026-05-06 20:33 44.42863 17.68743 35970 ft 406 kts 282°
2026-05-06 20:33 44.44298 17.61094 35985 ft 407 kts 282°
2026-05-06 20:34 44.45719 17.53485 35979 ft 407 kts 282°
2026-05-06 20:34 44.47142 17.45838 35993 ft 404 kts 281°
2026-05-06 20:35 44.48556 17.38208 35992 ft 405 kts 281°
2026-05-06 20:35 44.49968 17.30551 35976 ft 407 kts 281°
2026-05-06 20:36 44.51381 17.22860 35983 ft 407 kts 281°
2026-05-06 20:36 44.52792 17.15149 35995 ft 409 kts 281°
2026-05-06 20:37 44.54200 17.07418 35986 ft 410 kts 281°
2026-05-06 20:37 44.55607 16.99666 35974 ft 410 kts 281°
2026-05-06 20:38 44.57010 16.91908 35987 ft 410 kts 281°
2026-05-06 20:38 44.58407 16.84143 35983 ft 411 kts 281°
2026-05-06 20:39 44.59790 16.76417 35983 ft 411 kts 280°
2026-05-06 20:39 44.61180 16.68633 35984 ft 411 kts 280°
2026-05-06 20:40 44.62562 16.60852 35975 ft 411 kts 280°
2026-05-06 20:40 44.63939 16.53074 35976 ft 410 kts 279°
2026-05-06 20:41 44.65307 16.45307 35972 ft 409 kts 279°
2026-05-06 20:41 44.66666 16.37554 35977 ft 409 kts 279°
2026-05-06 20:42 44.68021 16.29794 35979 ft 409 kts 279°
2026-05-06 20:42 44.69371 16.22029 35967 ft 409 kts 279°
2026-05-06 20:43 44.70716 16.14260 35973 ft 409 kts 279°
2026-05-06 20:43 44.72057 16.06480 35971 ft 410 kts 278°
2026-05-06 20:44 44.73395 15.98677 35970 ft 411 kts 278°
2026-05-06 20:44 44.74731 15.90856 35974 ft 411 kts 278°
2026-05-06 20:45 44.76062 15.83036 35972 ft 411 kts 278°
2026-05-06 20:45 44.77302 15.75182 35985 ft 408 kts 274°
2026-05-06 20:46 44.78032 15.67252 35989 ft 410 kts 273°
2026-05-06 20:46 44.78730 15.59274 35990 ft 411 kts 273°
2026-05-06 20:47 44.79439 15.51258 35995 ft 414 kts 273°
2026-05-06 20:47 44.80152 15.43252 35990 ft 415 kts 273°
2026-05-06 20:48 44.80872 15.35161 36005 ft 417 kts 273°
2026-05-06 20:48 44.81590 15.27031 35991 ft 418 kts 273°
2026-05-06 20:49 44.82278 15.19147 36001 ft 419 kts 273°
2026-05-06 20:49 44.82986 15.10979 35991 ft 421 kts 273°
2026-05-06 20:50 44.83692 15.02783 35994 ft 422 kts 273°
2026-05-06 20:50 44.84393 14.94568 35989 ft 422 kts 273°
2026-05-06 20:51 44.85087 14.86355 35986 ft 422 kts 273°
2026-05-06 20:51 44.85775 14.78153 35988 ft 421 kts 273°
2026-05-06 20:52 44.86341 14.71343 35988 ft 420 kts 273°
2026-05-06 20:52 44.86790 14.65897 35656 ft 421 kts 272°
2026-05-06 20:52 44.87126 14.61810 35413 ft 419 kts 272°
2026-05-06 20:52 44.87460 14.57740 35202 ft 417 kts 272°
2026-05-06 20:53 44.87790 14.53692 34957 ft 416 kts 272°
2026-05-06 20:53 44.88118 14.49649 34716 ft 414 kts 271°
2026-05-06 20:53 44.88443 14.45620 34474 ft 413 kts 271°
2026-05-06 20:53 44.88661 14.42904 34311 ft 413 kts 271°
2026-05-06 20:54 44.88983 14.38881 34077 ft 412 kts 271°
2026-05-06 20:54 44.89274 14.35233 33851 ft 412 kts 271°
2026-05-06 20:54 44.89589 14.31256 33591 ft 412 kts 271°
2026-05-06 20:54 44.89905 14.27238 33304 ft 413 kts 271°
2026-05-06 20:55 44.90222 14.23206 33046 ft 414 kts 271°
2026-05-06 20:55 44.90539 14.19158 32833 ft 415 kts 271°
2026-05-06 20:55 44.90854 14.15104 32567 ft 416 kts 271°
2026-05-06 20:55 44.91169 14.11045 32308 ft 416 kts 271°
2026-05-06 20:56 44.91483 14.06978 32048 ft 417 kts 271°
2026-05-06 20:56 44.91795 14.02910 31784 ft 418 kts 271°
2026-05-06 20:56 44.92107 13.98837 31532 ft 418 kts 271°
2026-05-06 20:56 44.92418 13.94759 31156 ft 416 kts 271°
2026-05-06 20:57 44.92727 13.90713 30640 ft 412 kts 271°
2026-05-06 20:57 44.93030 13.86710 30136 ft 408 kts 271°
2026-05-06 20:57 44.93329 13.82746 29600 ft 403 kts 271°
2026-05-06 20:57 44.93622 13.78828 29047 ft 399 kts 271°
2026-05-06 20:58 44.93911 13.74959 28479 ft 394 kts 271°
2026-05-06 20:58 44.94195 13.71129 28046 ft 388 kts 271°
2026-05-06 20:58 44.94473 13.67354 27532 ft 384 kts 271°
2026-05-06 20:58 44.94746 13.63626 27025 ft 380 kts 271°
2026-05-06 20:59 44.95016 13.59927 26535 ft 377 kts 271°
2026-05-06 20:59 44.95282 13.56255 26049 ft 374 kts 271°
2026-05-06 20:59 44.95541 13.52667 25574 ft 371 kts 271°
2026-05-06 20:59 44.95802 13.49039 25101 ft 370 kts 271°
2026-05-06 21:00 44.96060 13.45435 24648 ft 368 kts 271°
2026-05-06 21:00 44.96317 13.41831 24179 ft 372 kts 271°
2026-05-06 21:00 44.96574 13.38159 23667 ft 380 kts 271°
2026-05-06 21:00 44.96836 13.34449 23116 ft 378 kts 271°
2026-05-06 21:01 44.97097 13.30769 22574 ft 374 kts 271°
2026-05-06 21:01 44.97353 13.27131 22078 ft 370 kts 271°
2026-05-06 21:01 44.97605 13.23533 21582 ft 367 kts 271°
2026-05-06 21:01 44.97852 13.19999 21104 ft 363 kts 271°
2026-05-06 21:02 44.98049 13.17151 20723 ft 361 kts 271°
2026-05-06 21:02 44.98290 13.13639 20256 ft 358 kts 271°
2026-05-06 21:02 44.98551 13.10142 19787 ft 357 kts 275°
2026-05-06 21:02 44.99121 13.06718 19268 ft 362 kts 284°
2026-05-06 21:03 44.99956 13.03353 18763 ft 362 kts 285°
2026-05-06 21:03 45.00805 13.00017 18299 ft 361 kts 285°
2026-05-06 21:03 45.01652 12.96686 17786 ft 359 kts 285°
2026-05-06 21:03 45.02488 12.93371 17292 ft 357 kts 285°
2026-05-06 21:04 45.03313 12.90071 16826 ft 354 kts 285°
2026-05-06 21:04 45.04126 12.86801 16372 ft 352 kts 285°
2026-05-06 21:04 45.04929 12.83550 15927 ft 349 kts 285°
2026-05-06 21:04 45.05724 12.80325 15490 ft 346 kts 284°
2026-05-06 21:05 45.06514 12.77114 15058 ft 344 kts 284°
2026-05-06 21:05 45.07297 12.73921 14635 ft 342 kts 284°
2026-05-06 21:05 45.08073 12.70755 14201 ft 340 kts 284°
2026-05-06 21:05 45.08845 12.67601 13767 ft 338 kts 284°
2026-05-06 21:06 45.09602 12.64499 13287 ft 336 kts 284°
2026-05-06 21:06 45.10364 12.61378 12813 ft 334 kts 284°
2026-05-06 21:06 45.11118 12.58283 12375 ft 332 kts 284°
2026-05-06 21:06 45.11862 12.55234 12180 ft 322 kts 284°
2026-05-06 21:07 45.12580 12.52286 12019 ft 312 kts 284°
2026-05-06 21:07 45.13274 12.49436 11890 ft 302 kts 284°
2026-05-06 21:07 45.13979 12.46653 11675 ft 299 kts 285°
2026-05-06 21:07 45.14704 12.43886 11471 ft 301 kts 285°
2026-05-06 21:08 45.15441 12.41081 11262 ft 306 kts 285°
2026-05-06 21:08 45.16187 12.38238 11052 ft 308 kts 286°
2026-05-06 21:08 45.16930 12.35402 10823 ft 306 kts 286°
2026-05-06 21:08 45.17668 12.32572 10590 ft 304 kts 286°
2026-05-06 21:09 45.18393 12.29790 10363 ft 298 kts 286°
2026-05-06 21:09 45.19093 12.27063 10151 ft 291 kts 283°
2026-05-06 21:09 45.19327 12.24303 9933 ft 278 kts 263°
2026-05-06 21:09 45.19162 12.21636 9911 ft 265 kts 262°
2026-05-06 21:10 45.19010 12.19043 9581 ft 264 kts 262°
2026-05-06 21:10 45.18865 12.16446 9234 ft 264 kts 263°
2026-05-06 21:10 45.18725 12.13876 9065 ft 257 kts 263°
2026-05-06 21:10 45.18521 12.11407 8924 ft 247 kts 251°
2026-05-06 21:11 45.17724 12.09327 8877 ft 236 kts 232°
2026-05-06 21:11 45.16590 12.07680 8869 ft 233 kts 222°
2026-05-06 21:11 45.15352 12.06149 8897 ft 239 kts 221°
2026-05-06 21:11 45.14082 12.04585 8907 ft 244 kts 222°
2026-05-06 21:12 45.12829 12.03027 8903 ft 242 kts 222°
2026-05-06 21:12 45.11574 12.01463 8893 ft 239 kts 222°
2026-05-06 21:12 45.10334 11.99909 8889 ft 237 kts 222°
2026-05-06 21:12 45.09107 11.98368 8884 ft 235 kts 222°
2026-05-06 21:13 45.07887 11.96835 8884 ft 234 kts 222°
2026-05-06 21:13 45.06668 11.95303 8895 ft 235 kts 223°
2026-05-06 21:13 45.05425 11.93741 8908 ft 242 kts 223°
2026-05-06 21:13 45.04154 11.92145 8912 ft 244 kts 223°
2026-05-06 21:14 45.02895 11.90567 8901 ft 239 kts 223°
2026-05-06 21:14 45.01810 11.88862 8856 ft 230 kts 243°
2026-05-06 21:14 45.01426 11.86735 8832 ft 223 kts 266°
2026-05-06 21:14 45.01656 11.84576 8709 ft 224 kts 285°
2026-05-06 21:15 45.02446 11.82647 8522 ft 232 kts 306°
2026-05-06 21:15 45.03527 11.80933 8341 ft 236 kts 311°
2026-05-06 21:15 45.04921 11.79635 8138 ft 246 kts 333°
2026-05-06 21:15 45.06586 11.79032 7942 ft 249 kts 348°
2026-05-06 21:16 45.08318 11.79069 7761 ft 250 kts
2026-05-06 21:16 45.09963 11.79703 7644 ft 247 kts 15°
2026-05-06 21:16 45.11559 11.80623 7510 ft 248 kts 23°
2026-05-06 21:16 45.12907 11.82133 7394 ft 249 kts 51°
2026-05-06 21:17 45.13940 11.84106 7216 ft 254 kts 59°
2026-05-06 21:17 45.14561 11.86469 6952 ft 257 kts 75°
2026-05-06 21:17 45.15216 11.88827 6666 ft 258 kts 59°
2026-05-06 21:17 45.16451 11.90576 6443 ft 251 kts 22°
2026-05-06 21:18 45.18088 11.91224 6287 ft 242 kts 10°
2026-05-06 21:18 45.19664 11.91961 6226 ft 236 kts 20°
2026-05-06 21:18 45.21159 11.93013 5995 ft 243 kts 28°
2026-05-06 21:18 45.22578 11.94289 5839 ft 238 kts 32°
2026-05-06 21:19 45.23876 11.95640 5759 ft 224 kts 36°
2026-05-06 21:19 45.24865 11.97234 5612 ft 212 kts 71°
2026-05-06 21:19 45.25269 11.99168 5487 ft 200 kts 72°
2026-05-06 21:19 45.25797 12.00947 5275 ft 189 kts 63°
2026-05-06 21:20 45.26449 12.02530 4957 ft 184 kts 56°
2026-05-06 21:20 45.27222 12.03966 4585 ft 182 kts 49°
2026-05-06 21:20 45.28098 12.05267 4185 ft 182 kts 45°
2026-05-06 21:20 45.28941 12.06583 3879 ft 178 kts 53°
2026-05-06 21:21 45.29726 12.07952 3637 ft 180 kts 49°
2026-05-06 21:21 45.30578 12.09263 3458 ft 178 kts 46°
2026-05-06 21:21 45.31460 12.10498 3489 ft 180 kts 44°
2026-05-06 21:21 45.32378 12.11725 3499 ft 182 kts 43°
2026-05-06 21:22 45.33310 12.12947 3500 ft 182 kts 43°
2026-05-06 21:22 45.34244 12.14161 3491 ft 182 kts 42°
2026-05-06 21:22 45.35178 12.15372 3460 ft 184 kts 42°
2026-05-06 21:22 45.36140 12.16617 3297 ft 187 kts 42°
2026-05-06 21:23 45.37076 12.17828 3222 ft 178 kts 42°
2026-05-06 21:23 45.37972 12.18986 3039 ft 173 kts 41°
2026-05-06 21:23 45.38859 12.20133 2785 ft 170 kts 41°
2026-05-06 21:23 45.39726 12.21255 2557 ft 167 kts 42°
2026-05-06 21:24 45.40584 12.22365 2347 ft 166 kts 41°
2026-05-06 21:24 45.41439 12.23470 2123 ft 165 kts 41°
2026-05-06 21:24 45.42285 12.24563 1895 ft 163 kts 41°
2026-05-06 21:24 45.43120 12.25643 1691 ft 161 kts 41°
2026-05-06 21:25 45.43949 12.26715 1457 ft 161 kts 42°
2026-05-06 21:25 45.44773 12.27780 1249 ft 159 kts 41°
2026-05-06 21:25 45.45570 12.28809 1036 ft 154 kts 41°
2026-05-06 21:25 45.46350 12.29815 826 ft 149 kts 41°
2026-05-06 21:26 45.47109 12.30796 612 ft 146 kts 41°
2026-05-06 21:26 45.47852 12.31759 412 ft 143 kts 41°
2026-05-06 21:26 45.48578 12.32703 238 ft 138 kts 42°
2026-05-06 21:26 45.49310 12.33644 81 ft 143 kts 41°
2026-05-06 21:27 45.50015 12.34546 16 ft 128 kts 41°
2026-05-06 21:27 45.50788 12.35518 426 ft 160 kts 40°
2026-05-06 21:27 45.51686 12.36643 1122 ft 189 kts 41°
2026-05-06 21:27 45.52732 12.37939 1976 ft 205 kts 41°
2026-05-06 21:28 45.53819 12.39350 2741 ft 226 kts 43°
2026-05-06 21:28 45.54827 12.41281 2999 ft 265 kts 68°
2026-05-06 21:28 45.55168 12.44092 2997 ft 315 kts 95°
2026-05-06 21:28 45.54621 12.47178 2993 ft 324 kts 115°
2026-05-06 21:29 45.53596 12.50038 2985 ft 320 kts 120°
2026-05-06 21:29 45.52542 12.52755 2959 ft 304 kts 121°
2026-05-06 21:29 45.51538 12.55316 2970 ft 288 kts 121°
2026-05-06 21:29 45.50528 12.57687 2974 ft 271 kts 130°
2026-05-06 21:30 45.49245 12.59511 2978 ft 254 kts 146°
2026-05-06 21:30 45.47742 12.60648 2979 ft 237 kts 164°
2026-05-06 21:30 45.46183 12.61023 3079 ft 219 kts 183°
2026-05-06 21:30 45.44740 12.60647 3318 ft 205 kts 203°
2026-05-06 21:31 45.43518 12.59787 3694 ft 205 kts 209°
2026-05-06 21:31 45.42244 12.58781 3991 ft 218 kts 210°
2026-05-06 21:31 45.40917 12.57714 3974 ft 218 kts 210°
2026-05-06 21:31 45.39622 12.56671 3975 ft 211 kts 210°
2026-05-06 21:32 45.38374 12.55666 3976 ft 207 kts 210°
2026-05-06 21:32 45.35872 12.53656 3990 ft 205 kts 210°
2026-05-06 21:32 45.34625 12.52658 3984 ft 206 kts 210°
2026-05-06 21:33 45.33410 12.51636 3985 ft 206 kts 216°
2026-05-06 21:33 45.32335 12.50267 4002 ft 215 kts 229°
2026-05-06 21:33 45.31411 12.48389 4020 ft 247 kts 240°
2026-05-06 21:33 45.30613 12.46190 3993 ft 252 kts 242°
2026-05-06 21:34 45.29840 12.43936 3996 ft 256 kts 243°
2026-05-06 21:34 45.29053 12.41649 3990 ft 259 kts 243°
2026-05-06 21:34 45.28258 12.39342 3989 ft 261 kts 243°
2026-05-06 21:34 45.27462 12.37036 3983 ft 259 kts 243°
2026-05-06 21:35 45.26674 12.34756 3976 ft 256 kts 243°
2026-05-06 21:35 45.25890 12.32490 3728 ft 255 kts 243°
2026-05-06 21:35 45.25375 12.31001 3557 ft 253 kts 243°
2026-05-06 21:35 45.24673 12.28729 3305 ft 251 kts 250°
2026-05-06 21:36 45.24284 12.26330 3082 ft 248 kts 262°
2026-05-06 21:36 45.24251 12.23930 3006 ft 240 kts 273°
2026-05-06 21:36 45.24561 12.21662 2985 ft 230 kts 285°
2026-05-06 21:36 45.25183 12.19634 2983 ft 219 kts 298°
2026-05-06 21:37 45.26091 12.17898 2993 ft 220 kts 310°
2026-05-06 21:37 45.27198 12.16405 3003 ft 219 kts 311°
2026-05-06 21:37 45.27855 12.14556 3009 ft 208 kts 274°
2026-05-06 21:37 45.28176 12.12552 2977 ft 214 kts 300°
2026-05-06 21:38 45.29322 12.11300 3000 ft 211 kts 344°
2026-05-06 21:38 45.30740 12.11445 3034 ft 207 kts 13°
2026-05-06 21:38 45.32115 12.12069 3009 ft 208 kts 21°
2026-05-06 21:38 45.33354 12.13096 2996 ft 205 kts 37°
2026-05-06 21:39 45.34427 12.14392 2988 ft 198 kts 41°
2026-05-06 21:39 45.35421 12.15677 2972 ft 190 kts 42°
2026-05-06 21:39 45.36382 12.16925 2988 ft 186 kts 42°
2026-05-06 21:39 45.37328 12.18153 3011 ft 187 kts 42°
2026-05-06 21:40 45.38300 12.19411 2915 ft 190 kts 41°
2026-05-06 21:40 45.39276 12.20673 2668 ft 186 kts 41°
2026-05-06 21:40 45.40206 12.21876 2425 ft 176 kts 41°
2026-05-06 21:40 45.41080 12.23007 2223 ft 168 kts 41°
2026-05-06 21:41 45.41931 12.24106 1993 ft 162 kts 41°
2026-05-06 21:41 45.42758 12.25175 1779 ft 159 kts 42°
2026-05-06 21:41 45.43574 12.26230 1564 ft 157 kts 42°
2026-05-06 21:41 45.44383 12.27276 1349 ft 157 kts 42°
2026-05-06 21:42 45.45187 12.28314 1140 ft 155 kts 41°
2026-05-06 21:42 45.45976 12.29334 932 ft 150 kts 41°
2026-05-06 21:42 45.46736 12.30316 725 ft 146 kts 41°
2026-05-06 21:42 45.47481 12.31280 535 ft 143 kts 41°
2026-05-06 21:43 45.48220 12.32228 354 ft 143 kts 42°
2026-05-06 21:43 45.48955 12.33184 177 ft 144 kts 42°
2026-05-06 21:43 45.49698 12.34140 21 ft 138 kts 41°
2026-05-06 21:43 45.50347 12.34972 10 ft 107 kts 42°
2026-05-06 21:44 45.50628 12.35326 11 ft 20 kts 26°
2026-05-06 21:44 45.50755 12.35404 14 ft 18 kts 18°
2026-05-06 21:44 45.50874 12.35445 15 ft 17 kts 13°
2026-05-06 21:44 45.50955 12.35446 16 ft 8 kts 329°
2026-05-06 21:45 45.50979 12.35373 18 ft 8 kts 270°
2026-05-06 21:45 45.50969 12.35292 18 ft 9 kts 259°
2026-05-06 21:45 45.50942 12.35189 18 ft 14 kts 233°
2026-05-06 21:45 45.50861 12.35082 18 ft 19 kts 222°
2026-05-06 21:46 45.50748 12.34936 14 ft 25 kts 222°
2026-05-06 21:46 45.50614 12.34764 13 ft 20 kts 222°
2026-05-06 21:46 45.50511 12.34632 16 ft 18 kts 227°
2026-05-06 21:46 45.50545 12.34487 15 ft 17 kts 312°
2026-05-06 21:47 45.50615 12.34375 13 ft 14 kts 313°
2026-05-06 21:47 45.50678 12.34271 12 ft 14 kts 294°
2026-05-06 21:47 45.50659 12.34147 12 ft 13 kts 229°
2026-05-06 21:47 45.50648 12.34132 13 ft 0 kts 226°